Change the Weather History Date:

Monday, August 12, 2013

  Actual Average Record
Temperature  
Mean Temperature 82 °F -  
Max Temperature 90 °F 86 °F 100 °F (1957)
Min Temperature 73 °F 67 °F 61 °F (1931)
Cooling Degree Days 16    
Growing Degree Days 32 (Base 50)    
Moisture  
Dew Point 71 °F    
Average Humidity 72    
Maximum Humidity 87    
Minimum Humidity 50    
Precipitation  
Precipitation 0.00 in - - ()
Sea Level Pressure  
Sea Level Pressure 30.04 in    
Wind  
Wind Speed 2 mph (West)    
Max Wind Speed 10 mph    
Max Gust Speed 16 mph    
Visibility 10 miles    
Events Thunderstorm    
Averages and records for this station are not official NWS values.
T = Trace of Precipitation, MM = Missing Value Source: NWS Daily Summary

Daily Weather History Graph

Daily Weather History Graph

Search for Another Location

Airport or City:

Trip Planner

Search our weather history database for the weather conditions in past years. The results will help you decide how hot, cold, wet, or windy it might be!

Date:

Astronomy

Aug. 12, 2013 Rise Set
Actual Time 6:50 AM EDT 8:22 PM EDT
Civil Twilight 6:23 AM EDT 8:49 PM EDT
Nautical Twilight 5:50 AM EDT 9:21 PM EDT
Astronomical Twilight 5:16 AM EDT 9:55 PM EDT
Moon 12:22 PM EDT (8/12) 11:32 PM EDT (8/12)
Length of Visible Light 14h 26m
Length of Day
13h 32m
Waxing Crescent, 31% of the Moon is Illuminated
Aug 12
Waxing Crescent
Aug 14
First Quarter
Aug 20
Full
Aug 28
Last Quarter
Sep 5
New

Hourly Weather History & Observations

Time (EDT) Temp. Heat Index Dew Point Humidity Pressure Visibility Wind Dir Wind Speed Gust Speed Precip Events Conditions
12:54 AM 75.9 °F - 70.0 °F 82% 30.09 in 10.0 mi Calm Calm - N/A   Clear
1:54 AM 75.0 °F - 70.0 °F 84% 30.09 in 10.0 mi Calm Calm - N/A   Clear
2:54 AM 75.0 °F - 70.0 °F 84% 30.07 in 10.0 mi Calm Calm - N/A   Clear
3:54 AM 75.0 °F - 70.0 °F 84% 30.07 in 10.0 mi Calm Calm - N/A   Clear
4:54 AM 73.9 °F - 70.0 °F 87% 30.07 in 10.0 mi Calm Calm - N/A   Clear
5:54 AM 73.9 °F - 69.1 °F 85% 30.08 in 10.0 mi Calm Calm - N/A   Clear
6:54 AM 73.9 °F - 69.1 °F 85% 30.08 in 10.0 mi Calm Calm - N/A   Clear
7:54 AM 75.0 °F - 69.1 °F 82% 30.08 in 10.0 mi Calm Calm - N/A   Clear
8:54 AM 79.0 °F - 70.0 °F 74% 30.09 in 10.0 mi NW 3.5 mph - N/A   Clear
9:54 AM 82.9 °F 87.0 °F 70.0 °F 65% 30.08 in 10.0 mi West 5.8 mph - N/A   Clear
10:54 AM 84.9 °F 90.1 °F 71.1 °F 63% 30.09 in 10.0 mi WSW 4.6 mph - N/A   Clear
11:54 AM 88.0 °F 93.8 °F 71.1 °F 57% 30.08 in 10.0 mi Variable 4.6 mph - N/A   Clear
12:54 PM 89.1 °F 96.0 °F 72.0 °F 57% 30.06 in 10.0 mi Calm Calm - N/A   Mostly Cloudy
1:54 PM 90.0 °F 94.5 °F 69.1 °F 50% 30.04 in 10.0 mi Calm Calm - N/A   Partly Cloudy
2:54 PM 90.0 °F 96.9 °F 72.0 °F 55% 30.00 in 10.0 mi South 6.9 mph - N/A   Partly Cloudy
3:54 PM 89.1 °F 96.0 °F 72.0 °F 57% 30.01 in 10.0 mi West 10.4 mph 16.1 mph N/A   Scattered Clouds
4:54 PM 87.1 °F 93.6 °F 72.0 °F 61% 30.00 in 10.0 mi NW 3.5 mph - 0.00 in   Clear
5:07 PM 87.8 °F 95.6 °F 73.4 °F 62% 30.04 in 10.0 mi Calm Calm - N/A Thunderstorm Clear
5:22 PM 87.8 °F 95.6 °F 73.4 °F 62% 30.04 in 10.0 mi Calm Calm - N/A   Clear
5:54 PM 87.1 °F 94.5 °F 73.0 °F 63% 30.00 in 10.0 mi NNE 3.5 mph - N/A   Clear
6:54 PM 82.9 °F 90.2 °F 75.0 °F 77% 29.98 in 10.0 mi Calm Calm - N/A   Clear
7:54 PM 81.0 °F 84.9 °F 71.1 °F 72% 29.98 in 10.0 mi WSW 3.5 mph - N/A   Clear
8:54 PM 79.0 °F - 70.0 °F 74% 29.99 in 10.0 mi Calm Calm - N/A   Clear
9:54 PM 78.1 °F - 70.0 °F 76% 30.00 in 10.0 mi WSW 6.9 mph - N/A   Clear
10:54 PM 77.0 °F - 70.0 °F 79% 30.00 in 10.0 mi WSW 6.9 mph - N/A   Clear
11:54 PM 75.9 °F - 70.0 °F 82% 29.99 in 10.0 mi WSW 8.1 mph - N/A   Clear